When you browse on this site, cookies collect data to enhance your experience and personalize the content and advertising you see.
Visit our Privacy Policy to learn more. By continuing to use the site, you agree to this use of cookies and data.
  • En España
  • Lista de países
  • Para 7 días
  • Temperatura del agua
  • Mapa Satelital
  • El tiempo en el mapa
  • Informadores
  • user-avatar
    Iniciar sesión

    Tiempo cada hora Bambari

    Hoy, 16 Junio, Domingo

    Tiempo Temperatura Precipitaciones Viento Presión Humedad
    00:00 +22°C° 0 mm 0 mps 722 mmHg 94%
    01:00 +21°C° 0 mm 0 mps 722 mmHg 93%
    02:00 +21°C° 0.1 mm 0 mps 722 mmHg 94%
    03:00 +21°C° 0.1 mm 0 mps 722 mmHg 95%
    04:00 +21°C° 0.1 mm 0 mps 722 mmHg 96%
    05:00 +21°C° 0 mm 0 mps 722 mmHg 95%
    06:00 +24°C° 0 mm 1 mps 723 mmHg 94%
    07:00 +25°C° 0 mm 1 mps 723 mmHg 93%
    08:00 +27°C° 0 mm 1 mps 723 mmHg 86%
    09:00 +28°C° 0 mm 1 mps 723 mmHg 79%
    10:00 +30°C° 0 mm 1 mps 723 mmHg 72%
    11:00 +30°C° 0 mm 1 mps 723 mmHg 71%
    12:00 +31°C° 0 mm 1 mps 722 mmHg 69%
    13:00 +31°C° 0 mm 1 mps 722 mmHg 68%
    14:00 +31°C° 0.2 mm 1 mps 721 mmHg 72%
    15:00 +30°C° 0.2 mm 1 mps 721 mmHg 77%
    16:00 +28°C° 0.2 mm 0 mps 720 mmHg 81%
    17:00 +26°C° 0.7 mm 0 mps 721 mmHg 84%
    18:00 +25°C° 0.7 mm 0 mps 721 mmHg 88%
    19:00 +24°C° 0.7 mm 0 mps 721 mmHg 91%
    20:00 +23°C° 0.4 mm 0 mps 722 mmHg 92%
    21:00 +23°C° 0.4 mm 0 mps 722 mmHg 93%
    22:00 +23°C° 0.4 mm 0 mps 723 mmHg 93%
    23:00 +22°C° 0 mm 0 mps 723 mmHg 94%

    Mañana, 17 Junio, Lunes

    Tiempo Temperatura Precipitaciones Viento Presión Humedad
    00:00 +22°C° 0 mm 0 mps 722 mmHg 94%
    01:00 +22°C° 0 mm 0 mps 722 mmHg 94%
    02:00 +22°C° 0 mm 0 mps 722 mmHg 94%
    03:00 +22°C° 0 mm 0 mps 722 mmHg 94%
    04:00 +22°C° 0 mm 0 mps 722 mmHg 94%
    05:00 +24°C° 0 mm 1 mps 722 mmHg 94%
    06:00 +24°C° 0 mm 1 mps 723 mmHg 94%
    07:00 +25°C° 0 mm 2 mps 723 mmHg 94%
    08:00 +25°C° 0 mm 2 mps 723 mmHg 91%
    09:00 +26°C° 0 mm 2 mps 723 mmHg 88%
    10:00 +27°C° 0 mm 2 mps 723 mmHg 85%
    11:00 +27°C° 0 mm 2 mps 723 mmHg 84%
    12:00 +27°C° 0 mm 2 mps 723 mmHg 83%
    13:00 +28°C° 0 mm 2 mps 722 mmHg 82%
    14:00 +28°C° 0.2 mm 2 mps 722 mmHg 81%
    15:00 +28°C° 0.2 mm 2 mps 722 mmHg 80%
    16:00 +28°C° 0.2 mm 2 mps 721 mmHg 80%
    17:00 +27°C° 0 mm 1 mps 722 mmHg 84%
    18:00 +26°C° 0 mm 1 mps 722 mmHg 89%
    19:00 +22°C° 0 mm 0 mps 722 mmHg 94%
    20:00 +22°C° 0 mm 0 mps 723 mmHg 94%
    21:00 +22°C° 0 mm 0 mps 723 mmHg 94%
    22:00 +22°C° 0 mm 0 mps 723 mmHg 94%
    23:00 +22°C° 0 mm 0 mps 723 mmHg 94%

    Pasado mañana, 18 Junio, Martes

    Tiempo Temperatura Precipitaciones Viento Presión Humedad
    00:00 +21°C° 0 mm 0 mps 723 mmHg 94%
    01:00 +21°C° 0 mm 0 mps 723 mmHg 94%
    02:00 +21°C° 0.5 mm 0 mps 723 mmHg 94%
    03:00 +23°C° 0.5 mm 1 mps 723 mmHg 95%
    04:00 +23°C° 0.5 mm 1 mps 723 mmHg 95%
    05:00 +24°C° 0.1 mm 1 mps 724 mmHg 94%
    06:00 +22°C° 0.1 mm 0 mps 724 mmHg 93%
    07:00 +22°C° 0.1 mm 0 mps 724 mmHg 91%
    08:00 +23°C° 0 mm 0 mps 724 mmHg 89%
    09:00 +24°C° 0 mm 0 mps 725 mmHg 86%
    10:00 +25°C° 0 mm 0 mps 725 mmHg 84%
    11:00 +28°C° 0.5 mm 1 mps 724 mmHg 78%
    12:00 +30°C° 0.5 mm 1 mps 724 mmHg 72%
    13:00 +31°C° 0.5 mm 2 mps 723 mmHg 66%
    14:00 +30°C° 0 mm 1 mps 723 mmHg 69%
    15:00 +30°C° 0 mm 1 mps 722 mmHg 72%
    16:00 +29°C° 0 mm 1 mps 722 mmHg 75%
    17:00 +28°C° 0.1 mm 1 mps 722 mmHg 79%
    18:00 +25°C° 0.1 mm 0 mps 722 mmHg 83%
    19:00 +23°C° 0.1 mm 0 mps 722 mmHg 87%
    20:00 +23°C° 0.1 mm 0 mps 722 mmHg 89%
    21:00 +22°C° 0.1 mm 0 mps 723 mmHg 90%
    22:00 +22°C° 0.1 mm 0 mps 723 mmHg 92%
    23:00 +22°C° 0.4 mm 0 mps 723 mmHg 93%

    19 Junio, Miércoles

    Tiempo Temperatura Precipitaciones Viento Presión Humedad
    00:00 +22°C° 0.4 mm 0 mps 723 mmHg 94%
    01:00 +22°C° 0.4 mm 0 mps 722 mmHg 94%
    02:00 +21°C° 0.3 mm 0 mps 722 mmHg 95%
    03:00 +21°C° 0.3 mm 0 mps 722 mmHg 96%
    04:00 +21°C° 0.3 mm 0 mps 722 mmHg 96%
    05:00 +22°C° 0 mm 0 mps 723 mmHg 95%
    06:00 +23°C° 0 mm 0 mps 723 mmHg 93%
    07:00 +23°C° 0 mm 0 mps 723 mmHg 92%
    08:00 +25°C° 0.2 mm 0 mps 724 mmHg 84%
    09:00 +29°C° 0.2 mm 1 mps 724 mmHg 77%
    10:00 +31°C° 0.2 mm 1 mps 724 mmHg 70%
    11:00 +30°C° 1.8 mm 1 mps 723 mmHg 75%
    12:00 +29°C° 1.8 mm 1 mps 722 mmHg 80%
    13:00 +28°C° 1.8 mm 1 mps 721 mmHg 85%
    14:00 +29°C° 0.1 mm 1 mps 721 mmHg 82%
    15:00 +29°C° 0.1 mm 1 mps 721 mmHg 79%
    16:00 +29°C° 0.1 mm 1 mps 720 mmHg 76%
    17:00 +28°C° 0.5 mm 1 mps 721 mmHg 80%
    18:00 +25°C° 0.5 mm 0 mps 721 mmHg 83%
    19:00 +24°C° 0.5 mm 0 mps 722 mmHg 86%
    20:00 +23°C° 0 mm 0 mps 722 mmHg 86%
    21:00 +23°C° 0 mm 0 mps 722 mmHg 87%
    22:00 +23°C° 0 mm 0 mps 723 mmHg 87%
    23:00 +23°C° 0 mm 0 mps 722 mmHg 87%

    20 Junio, Jueves

    Tiempo Temperatura Precipitaciones Viento Presión Humedad
    00:00 +23°C° 0 mm 0 mps 722 mmHg 88%
    01:00 +23°C° 0 mm 0 mps 722 mmHg 88%
    02:00 +23°C° 0 mm 0 mps 722 mmHg 89%
    03:00 +22°C° 0 mm 0 mps 722 mmHg 90%
    04:00 +22°C° 0 mm 0 mps 722 mmHg 92%
    05:00 +22°C° 0 mm 0 mps 722 mmHg 91%
    06:00 +23°C° 0 mm 0 mps 722 mmHg 91%
    07:00 +23°C° 0 mm 0 mps 723 mmHg 90%
    08:00 +27°C° 0 mm 1 mps 723 mmHg 83%
    09:00 +29°C° 0 mm 1 mps 723 mmHg 75%
    10:00 +31°C° 0 mm 1 mps 723 mmHg 67%
    11:00 +31°C° 0.7 mm 1 mps 723 mmHg 67%
    12:00 +32°C° 0.7 mm 2 mps 722 mmHg 66%
    13:00 +32°C° 0.7 mm 2 mps 721 mmHg 65%
    14:00 +31°C° 1.4 mm 1 mps 721 mmHg 71%
    15:00 +31°C° 1.4 mm 1 mps 721 mmHg 77%
    16:00 +30°C° 1.4 mm 1 mps 721 mmHg 83%
    17:00 +28°C° 0 mm 1 mps 721 mmHg 85%
    18:00 +27°C° 0 mm 1 mps 721 mmHg 87%
    19:00 +26°C° 0 mm 1 mps 721 mmHg 89%
    20:00 +25°C° 0 mm 1 mps 721 mmHg 89%
    21:00 +23°C° 0 mm 0 mps 722 mmHg 90%
    22:00 +22°C° 0 mm 0 mps 722 mmHg 90%
    23:00 +22°C° 0.1 mm 0 mps 722 mmHg 90%

    21 Junio, Viernes

    Tiempo Temperatura Precipitaciones Viento Presión Humedad
    00:00 +22°C° 0.1 mm 0 mps 722 mmHg 90%
    01:00 +22°C° 0.1 mm 0 mps 722 mmHg 90%
    02:00 +22°C° 0.3 mm 0 mps 722 mmHg 91%
    03:00 +22°C° 0.3 mm 0 mps 722 mmHg 92%
    04:00 +21°C° 0.3 mm 0 mps 722 mmHg 93%
    05:00 +22°C° 0.2 mm 0 mps 722 mmHg 93%
    06:00 +23°C° 0.2 mm 0 mps 723 mmHg 93%
    07:00 +23°C° 0.2 mm 0 mps 724 mmHg 92%
    08:00 +27°C° 0.9 mm 1 mps 724 mmHg 89%
    09:00 +28°C° 0.9 mm 1 mps 724 mmHg 86%
    10:00 +29°C° 0.9 mm 1 mps 724 mmHg 83%
    11:00 +30°C° 0.5 mm 2 mps 723 mmHg 78%
    12:00 +30°C° 0.5 mm 2 mps 722 mmHg 73%
    13:00 +31°C° 0.5 mm 2 mps 722 mmHg 68%
    14:00 +31°C° 0.1 mm 2 mps 721 mmHg 71%
    15:00 +30°C° 0.1 mm 2 mps 721 mmHg 74%
    16:00 +30°C° 0.1 mm 2 mps 721 mmHg 76%
    17:00 +28°C° 0.2 mm 2 mps 721 mmHg 83%
    18:00 +27°C° 0.2 mm 1 mps 721 mmHg 89%
    19:00 +25°C° 0.2 mm 1 mps 721 mmHg 95%
    20:00 +25°C° 0 mm 1 mps 722 mmHg 96%
    21:00 +24°C° 0 mm 1 mps 722 mmHg 96%
    22:00 +24°C° 0 mm 1 mps 722 mmHg 97%
    23:00 +24°C° 0 mm 1 mps 722 mmHg 96%
    Mostrar más